Location: *
(46.9488°S, 172.8420°W)
Time: 01:27:14
(UTC+00:00)

Daily predictions for brighter satellites

Satellite Brightness Start Highest point End
(mag) Time Altitude Azimuth Time Altitude Azimuth Time Altitude Azimuth
CZ-4B R/B 3.5 04:19:37 10° SSE 04:24:35 89° WSW 04:29:22 10° NNW
ERBS 3.7 04:25:40 10° SSW 04:28:08 20° SSE 04:30:35 10° ESE
Cosmos 2360 4.2 04:23:41 10° SSW 04:29:29 72° ESE 04:35:11 10° NE
CZ-2C R/B 3.8 04:29:00 10° N 04:29:51 11° NNE 04:30:41 10° NNE
Cosmos 1605 Rocket 4.4 04:23:50 10° SSW 04:30:13 75° W 04:36:24 10° N
Cosmos 1153 Rocket 4.5 04:26:25 10° S 04:32:43 75° E 04:38:53 10° NNE
Cosmos 1340 Rocket 3.1 04:28:53 10° N 04:32:49 51° E 04:36:50 10° SSE
BREEZE M DEB (TANK) 3.7 04:36:53 10° N 04:38:20 16° NE 04:39:54 10° E
Meteor 1-31 Rocket 3.4 04:35:25 10° SSE 04:39:12 39° E 04:42:55 10° NNE
Cosmos 2151 3.7 04:36:47 10° NNE 04:40:42 34° E 04:44:40 10° SSE
Cosmos 1607 4.1 04:36:36 10° NW 04:42:53 81° SW 04:49:20 10° SE
PSLV R/B 4.3 04:39:38 10° S 04:43:48 53° WSW 04:47:56 10° NNW
USA 308 2.9 04:40:52 10° SW 04:45:06 68° SSE 04:49:19 10° ENE
SL-16 R/B 3.5 04:42:46 10° S 04:47:00 20° SE 04:51:11 10° E
CZ-2C R/B 4.2 04:43:53 10° S 04:47:45 41° WSW 04:51:34 10° NW
Cosmos 1302 Rocket 4.1 04:45:15 10° NNW 04:50:30 88° WSW 04:55:52 10° SSE
COSMOS 2406 3.3 04:47:20 10° N 04:52:56 62° ENE 04:58:35 10° SSE
COSMO-SKYMED 1 2.9 04:49:06 10° N 04:53:29 72° W 04:57:55 10° SSW
Landsat 5 4.1 04:51:37 10° NE 04:55:44 38° ESE 04:59:46 10° S
Cosmos 2173 Rocket 4.0 04:52:57 10° S 04:59:22 72° E 05:05:39 10° NNE
Cosmos 1782 2.8 04:56:31 10° S 05:00:30 56° ESE 05:04:24 10° NNE
Cosmos 1833 Rocket 2.9 04:55:05 10° NNW 05:00:45 75° WSW 05:06:30 10° SSE
Cosmos 2016 Rocket 4.2 04:55:59 10° S 05:02:05 50° ESE 05:08:11 10° NNE
SeaSat 1 3.9 05:01:15 10° SSE 05:05:43 34° SW 05:10:11 10° WNW
USA 305 3.0 05:02:11 10° WSW 05:06:25 80° NW 05:10:37 10° NE
Cosmos 1992 Rocket 4.1 05:01:38 10° N 05:06:47 60° ENE 05:12:00 10° SSE
Cosmos 1486 Rocket 4.0 05:01:54 10° SSW 05:07:19 72° ESE 05:12:40 10° NNE
Cosmos 2360 Rocket 3.7 05:04:58 10° S 05:08:21 16° SE 05:09:28 15° SE
Cosmos 1933 3.4 05:05:02 10° S 05:09:10 88° W 05:13:15 10° N
Cosmos 1727 Rocket 4.3 05:03:36 10° NNW 05:09:51 71° W 05:16:08 10° S
Cosmos 2278 3.9 05:04:23 10° SSW 05:09:59 51° ESE 05:15:30 10° NE
SMAP 4.0 05:06:12 11° SE 05:10:02 28° E 05:14:04 10° NNE
Cosmos 1939 Rocket 3.0 05:06:40 10° SSE 05:10:31 50° E 05:14:19 10° N
Lacrosse 5 rocket 2.8 05:07:45 10° SW 05:10:59 22° S 05:12:32 18° SE
DMSP B5D1-3 4.5 05:09:20 10° NNE 05:14:28 69° ESE 05:19:42 10° S
Cosmos 1864 Rocket 4.5 05:09:49 10° S 05:15:59 59° ESE 05:22:03 10° NNE
Cosmos 1151 Rocket 3.8 05:13:06 10° S 05:17:02 30° ESE 05:20:54 10° NE
Meteor PRIRODA 4.3 05:16:58 19° SE 05:19:05 35° E 05:22:32 10° NNE
Cosmos 1076 Rocket 3.8 05:14:45 10° NNW 05:19:08 72° W 05:23:33 10° S
Cosmos 1802 Rocket 4.0 05:15:08 10° S 05:21:40 81° E 05:28:09 10° N
BREEZE-M DEB (TANK) 4.0 05:13:41 10° WSW 05:21:47 43° NW 05:24:58 10° NNE
SL-08 R/B 4.5 05:15:42 10° S 05:21:56 60° ESE 05:28:00 10° NNE
Cosmos 1459 Rocket 4.1 05:16:34 10° S 05:22:49 82° W 05:29:06 10° N
Meteor 2-3 Rocket 3.9 05:17:57 10° NNW 05:23:36 78° WSW 05:29:22 10° S
USA 281 3.8 05:21:17 15° SE 05:26:19 36° ENE 05:32:19 10° N
Orbus 7S? 3.6 05:24:16 10° SW 05:28:02 32° SSE 05:28:30 31° SE
ATLAS 2AS CENTAUR R/B 4.2 05:21:44 10° SW 05:28:20 42° WNW 05:35:17 10° N
CZ-2D R/B 3.9 05:30:12 31° ESE 05:30:51 33° E 05:34:22 10° NNE
ARGOS 4.1 05:30:55 25° ESE 05:31:56 26° E 05:36:25 10° NNE
Cosmos 1812 2.7 05:28:35 10° S 05:32:31 85° W 05:36:22 10° N
CZ-4B R/B 3.0 05:34:48 32° SE 05:36:07 46° E 05:39:53 10° N
CZ-2C R/B 4.3 05:32:06 10° S 05:36:34 38° WSW 05:41:06 10° NW
Cosmos 1503 Rocket 3.9 05:31:59 10° SSW 05:37:14 77° ESE 05:42:27 10° NNE
SJ 16-02 1.7 05:33:05 10° S 05:37:22 42° ESE 05:39:38 24° ENE
Cosmos 1980 Rocket 2.7 05:35:15 10° SSW 05:40:51 64° WNW 05:46:23 10° NNE
Meteor 2-6 Rocket 4.1 05:35:29 10° S 05:41:08 67° ESE 05:46:35 10° NNE
CZ-4C R/B 2.7 05:41:22 10° NNE 05:44:36 66° ESE 05:47:58 10° S
USA 306 4.0 05:44:25 10° WSW 05:48:25 42° NW 05:52:10 11° NNE
H-2A R/B 4.0 05:52:26 17° SSE 05:52:26 17° SSE 05:53:39 10° S
Cosmos 2322 Rocket 2.7 05:45:11 10° SSW 05:50:31 37° SE 05:51:24 35° ESE
RESURS DK-1 3.4 05:47:40 10° SW 05:51:44 48° WNW 05:55:45 10° N
USA 307 3.9 05:49:40 10° WSW 05:53:43 44° NW 05:56:49 16° NNE
Cosmos 1900 4.4 05:48:59 10° SSW 05:53:47 54° SE 05:54:56 43° E
Cosmos 2082 Rocket 2.5 05:49:29 10° NW 05:55:06 66° WSW 05:59:35 17° SSE
H-2A R/B 1.8 05:55:24 16° SSE 05:59:29 77° ENE 06:04:26 10° N
USA 215 3.4 05:53:47 12° NE 06:00:03 78° NW 06:06:43 10° SW
Cosmos 2333 Rocket 3.7 05:56:59 10° S 05:59:59 20° SSE 05:59:59 20° SSE
Cosmos 2123 Rocket 4.3 05:56:44 10° NNW 06:03:05 70° W 06:09:29 10° S
ERBS 2.9 06:00:40 10° SW 06:03:05 48° SW 06:03:05 48° SW
Cosmos 2061 Rocket 4.3 05:58:31 10° SSW 06:04:55 69° W 06:11:11 10° N
Cosmos 1862 3.5 06:01:13 10° NNW 06:05:12 73° W 06:07:13 28° S
Cosmos 1766 Rocket 3.6 06:00:56 10° N 06:04:51 57° ENE 06:04:51 57° ENE
Cosmos 1725 Rocket 4.4 05:59:02 10° SSW 06:05:16 65° W 06:11:30 10° N
IRIDIUM 104 4.3 06:00:35 10° NNE 06:05:45 60° E 06:09:31 19° SSE
Lacrosse 5 2.2 06:01:23 10° SW 06:06:23 48° SSE 06:06:47 47° SE
Okean 3 Rocket 4.2 06:02:10 10° NNE 06:05:27 40° NE 06:05:27 40° NE
CZ-2C R/B 3.5 06:06:19 10° NNW 06:08:08 13° N 06:08:37 13° N
ADEOS 4.0 06:04:23 10° S 06:09:38 62° WSW 06:14:49 10° NNW
CORIOLIS 4.1 06:05:10 16° SSE 06:09:45 81° ENE 06:15:14 10° NNW
Cosmos 2219 Rocket 4.0 06:06:43 10° S 06:08:49 16° SSE 06:08:49 16° SSE
IRIDIUM 114 4.2 06:09:38 10° N 06:14:52 72° E 06:18:41 19° S
Cosmos 2084 3.7 06:11:05 10° NW 06:15:56 86° SW 06:16:41 64° SSE
IRIDIUM 103 4.2 06:18:45 10° N 06:24:00 85° E 06:27:49 20° S
Cosmos 1867 4.1 06:19:37 10° SSW 06:23:54 42° SSE 06:23:54 42° SSE
NOAA 6 4.1 06:29:17 35° S 06:31:31 76° WSW 06:36:39 10° NNW
SL-16 R/B 2.1 06:26:08 10° SSW 06:31:54 89° WNW 06:33:22 52° NNE
Cosmos 2237 4.2 06:32:43 10° SSW 06:37:59 70° SSE 06:37:59 70° SSE
Cosmos 1777 Rocket 4.4 06:34:30 10° SSW 06:39:43 62° WNW 06:42:24 28° N
SMAP 4.5 06:44:40 20° SSW 06:47:26 37° WSW 06:51:44 10° NW
Lacrosse 5 rocket 3.5 06:46:48 10° SW 06:48:05 19° SW 06:48:05 19° SW
Cosmos 2360 Rocket 3.1 06:47:49 10° SSW 06:51:15 37° S 06:51:15 37° S
ATLAS 5 CENTAUR R/B 4.4 06:57:24 10° N 06:59:37 20° N 06:59:37 20° N
Meteor 1-27 Rocket 4.1 06:59:14 10° SSW 07:04:44 59° W 07:04:59 58° WNW
USA 281 3.8 07:08:10 33° S 07:10:59 52° SW 07:17:21 10° NW
ARGOS 3.9 07:12:25 49° WSW 07:12:25 49° WSW 07:17:37 10° NW
SJ 16-02 3.7 07:12:14 10° SW 07:15:38 21° W 07:16:45 19° WNW
Cosmos 2322 Rocket 3.6 07:29:16 10° SW 07:33:15 35° WSW 07:33:15 35° WSW
Cosmos 2333 Rocket 4.4 07:40:36 10° SSW 07:42:01 18° SSW 07:42:01 18° SSW
Lacrosse 5 4.3 07:44:28 10° WSW 07:45:59 19° WSW 07:45:59 19° WSW
